EW0844 Weather Reports


time (UTC)temp
C
wind
direction
speed
KPH
gust
KPH
rain 1hr
cm
rain 24hr
cm
rain mn
cm
humidity
%
barometer
mb
20260831163413 22 228 6.4 14.5 0.00 0.30 0.30 51 1015.9
20260831161913 22 308 8.0 14.5 0.00 0.30 0.30 51 1015.7
20260831160411 23 213 8.0 17.7 0.00 0.30 0.30 51 1015.7
20260831154911 23 247 9.7 19.3 0.00 0.30 0.30 51 1015.5
20260831153414 23 206 8.0 16.1 0.00 0.30 0.30 51 1015.5
20260831151914 23 212 6.4 12.9 0.00 0.30 0.30 50 1015.8
20260831144914 23 213 6.4 17.7 0.00 0.30 0.30 47 1015.7
20260831143414 24 263 6.4 16.1 0.00 0.30 0.30 50 1015.8
20260831141915 25 307 8.0 17.7 0.00 0.30 0.30 48 1015.8
20260831140414 25 225 9.7 22.5 0.00 0.30 0.30 48 1015.5
20260831134914 25 302 16.1 25.7 0.00 0.30 0.30 49 1015.6
20260831133414 25 301 8.0 17.7 0.00 0.30 0.30 51 1015.7
20260831131914 25 267 8.0 14.5 0.00 0.30 0.30 51 1015.6
20260831130414 25 350 4.8 12.9 0.00 0.30 0.30 52 1015.7
20260831124914 25 242 9.7 17.7 0.00 0.30 0.30 54 1015.9
20260831123412 25 235 9.7 19.3 0.00 0.30 0.30 52 1015.9
20260831121914 24 359 4.8 16.1 0.00 0.30 0.30 54 1016.2
20260831120414 24 275 9.7 14.5 0.00 0.30 0.30 54 1016.1
20260831114913 25 337 8.0 17.7 0.00 0.30 0.30 54 1016.1
20260831113412 24 359 9.7 16.1 0.00 0.30 0.30 56 1016.2
20260831111912 23 308 8.0 14.5 0.00 0.30 0.30 56 1016.2
20260831110412 23 359 11.3 19.3 0.00 0.30 0.30 56 1016.4
20260831104911 24 256 6.4 17.7 0.00 0.30 0.30 56 1016.3
20260831103411 23 256 8.0 14.5 0.00 0.30 0.30 57 1016.2
20260831100411 23 210 8.0 16.1 0.00 0.30 0.30 58 1016.4
20260831094911 22 359 9.7 14.5 0.00 0.30 0.30 61 1016.5
20260831093411 22 243 3.2 11.3 0.00 0.30 0.30 65 1016.5
20260831091911 21 227 4.8 11.3 0.00 0.30 0.30 66 1016.6
20260831084915 21 221 4.8 12.9 0.00 0.30 0.30 67 1016.7
20260831081913 21 225 3.2 8.0 0.00 0.30 0.30 70 1016.5
20260831080414 21 255 4.8 8.0 0.00 0.30 0.30 70 1016.5
20260831071914 20 238 6.4 16.1 0.00 0.30 0.30 72 1016.2
20260831070414 19 277 11.3 20.9 0.00 0.30 0.30 74 1016.0
20260831064913 19 227 6.4 17.7 0.00 0.30 0.30 75 1015.9
20260831061914 17 135 4.8 9.7 0.00 0.30 0.30 82 1015.8
20260831060414 17 240 3.2 8.0 0.00 0.30 0.30 83 1015.7
20260831054914 17 222 1.6 6.4 0.00 0.30 0.30 85 1015.5
20260831053414 16 189 4.8 9.7 0.00 0.30 0.30 87 1015.4
20260831051912 16 228 3.2 12.9 0.00 0.30 0.30 88 1015.4
20260831050414 16 264 3.2 8.0 0.03 0.30 0.30 88 1015.3
20260831044914 16 215 1.6 9.7 0.05 0.30 0.30 87 1015.4
20260831043413 16 200 4.8 14.5 0.05 0.30 0.30 87 1015.5
20260831041914 16 244 8.0 16.1 0.05 0.30 0.30 86 1015.4
20260831040414 17 232 12.9 27.4 0.05 0.28 0.28 87 1015.7
20260831034911 17 249 4.8 9.7 0.03 0.25 0.25 89 1014.4
20260831033411 17 268 1.6 4.8 0.00 0.23 0.23 90 1013.3
20260831031911 17 104 1.6 3.2 0.00 0.23 0.23 90 1013.7
20260831023411 17 62 1.6 3.2 0.00 0.23 0.23 89 1013.2
20260831021910 17 313 0.0 3.2 0.00 0.23 0.23 89 1013.4
20260831020411 17 71 1.6 6.4 0.00 0.23 0.23 90 1013.4
20260831013414 17 116 1.6 6.4 0.00 0.23 0.23 89 1013.9
20260831011914 17 209 3.2 8.0 0.00 0.23 0.23 90 1013.9
20260831010414 17 40 1.6 9.7 0.03 0.23 0.23 90 1014.0
20260831004914 17 176 3.2 8.0 0.05 0.23 0.23 91 1014.3
20260831003414 17 138 4.8 11.3 0.13 0.23 0.23 91 1014.1
20260831000414 17 360 3.2 11.3 0.15 0.23 0.23 90 1014.7
20260830234913 18 88 3.2 6.4 0.15 0.20 0.20 89 1014.9
20260830231914 18 201 1.6 8.0 0.08 0.08 0.08 87 1015.1
20260830230414 18 103 1.6 4.8 0.05 0.05 0.05 88 1015.0
20260830224914 18 147 3.2 8.0 0.05 0.05 0.05 86 1014.8
20260830223413 18 200 4.8 9.7 0.05 0.05 0.05 83 1014.9
20260830221914 19 125 3.2 8.0 0.00 0.00 0.00 81 1015.0
20260830213412 20 62 0.0 3.2 0.00 0.00 0.00 75 1014.8
20260830210411 20 45 1.6 6.4 0.00 0.00 0.00 74 1014.8
20260830203413 20 136 1.6 4.8 0.00 0.00 0.00 73 1014.9
20260830201913 21 78 1.6 4.8 0.00 0.00 0.00 73 1014.9
20260830194913 21 128 1.6 3.2 0.00 0.00 0.00 70 1015.2
20260830193413 21 27 0.0 3.2 0.00 0.00 0.00 68 1015.2
20260830191911 22 151 0.0 3.2 0.00 0.00 0.00 64 1015.0
20260830190414 22 45 0.0 3.2 0.00 0.00 0.00 64 1014.8
20260830183411 16 45 0.0 1.6 0.00 0.00 0.00 81 1016.1
20260830181913 23 360 1.6 3.2 0.00 0.00 0.00 60 1014.6
20260830180411 24 282 1.6 4.8 0.00 0.00 0.00 58 1014.5
20260830174911 24 339 3.2 4.8 0.00 0.00 0.00 56 1014.3
20260830173411 25 55 3.2 4.8 0.00 0.00 0.00 56 1014.2
20260830171911 25 19 3.2 6.4 0.00 0.00 0.00 54 1014.2
20260830170414 25 359 3.2 6.4 0.00 0.00 0.00 54 1014.0